Regional Weather Roundup
Issued by NWS Sterling, VA

Home | Current Version | Previous Version | Text Only | Print | Product List | Glossary On
Versions: 1 2 3 4 5 6 7 8 9 10 11 12 13 14 15 16 17 18 19 20 21 22 23 24 25 26 27
000
ASUS41 KLWX 210811
RWRLWX

REGIONAL WEATHER ROUNDUP
NATIONAL WEATHER SERVICE BALTIMORE MD/WASHINGTON DC
400 AM EDT FRI JUL 21 2017

Note: "FAIR" indicates few or no clouds below 12,000 feet
with no significant weather and/or obstructions to visibility.
 TC=TEMPERATURE CELSIUS

 * =Non NWS site. Station does not report precipitation (e.g. rain,
    snow, etc.), thunder, or fog.

DCZ001-MDZ009-015-VAZ040>042-051-053>054-210900-
WASHINGTON METRO

CITY           SKY/WX    TMP DP  RH WIND       PRES   REMARKS
WASHINGTON NAT CLOUDY    86  69  56 NW6       29.91F HX  90
DULLES         CLOUDY    74  69  85 CALM      29.93F
ANDREWS AFB    PTCLDY    82  69  64 W6        29.91F
FT BELVOIR     PTCLDY    74  70  87 CALM      29.91F
QUANTICO       CLOUDY    78  76  93 NW7       29.93S
COLLEGE PARK*  CLOUDY    76  71  85 CALM      29.91S
LEESBURG*      PTCLDY    79  72  78 CALM      29.94F
MANASSAS*      PTCLDY    73  72  96 CALM      29.93F FOG
GAITHERSBURG*  MOCLDY    75  70  84 CALM      29.94F

$$

MDZ006>007-011-014-210900-
BALTIMORE METRO

CITY           SKY/WX    TMP DP  RH WIND       PRES   REMARKS
BWI AIRPORT    MOCLDY    79  70  74 W6        29.90F
MD SCIENCE CTR   N/A     85  69  58 MISG      29.90S
MARTIN STATE   PTCLDY    81  72  74 W8        29.91S
ANNAPOLIS      PTCLDY    79  75  87 W3        29.89F
FORT MEADE*    PTCLDY    72  70  94 CALM      29.93F

$$

MDZ012-015-019>023-210900-
MARYLAND EASTERN SHORE

CITY           SKY/WX    TMP DP  RH WIND       PRES   REMARKS
OCEAN CITY     CLOUDY    81  75  82 SW12      29.90F
SALISBURY      NOT AVBL
BAY BRIDGE AP* CLEAR     82  75  78 W5        29.90S
CAMBRIDGE*     CLEAR     77  75  94 CALM      29.90F
EASTON*        CLOUDY    81  75  84 W3        29.93F

$$

MDZ017>025-210900-
SOUTHERN MARYLAND

CITY           SKY/WX    TMP DP  RH WIND       PRES   REMARKS
PATUXENT RIVER MOCLDY    79  75  87 SW10      29.90F
ST INIGOES     CLOUDY    80  74  81 SW7       29.91S
LEONARDTOWN*   CLOUDY   N/A N/A N/A CALM      29.93F

$$

MDZ003>005-210900-
NORTH CENTRAL MARYLAND

CITY           SKY/WX    TMP DP  RH WIND       PRES   REMARKS
FREDERICK*     CLOUDY    75  73  94 S3        29.96S
HAGERSTOWN APT PTCLDY    80  69  69 W3        29.95S
WESTMINSTER*   CLOUDY    79  70  73 W5        29.95S

$$

MDZ501>502-210900-
WESTERN MARYLAND

CITY           SKY/WX    TMP DP  RH WIND       PRES   REMARKS
OAKLAND*       MOCLDY    68  66  94 W5        30.06F
CUMBERLAND*    PTCLDY    73  70  88 CALM      30.01S

$$

VAZ025>031-210900-
SHENANDOAH VALLEY

CITY           SKY/WX    TMP DP  RH WIND       PRES   REMARKS
WINCHESTER*    MOCLDY    72  64  78 CALM      29.96S
FRONT ROYAL*   PTCLDY    73  66  78 S3        29.95F
LURAY*         PTCLDY    72  68  88 CALM      29.98F
NEW MARKET*    CLOUDY    70  67  88 CALM      29.98S
STAUNTON*      CLOUDY    69  67  93 CALM      30.03S
WAYNESBORO*    CLOUDY    72  68  87 CALM      30.02S

$$

WVZ021-048>050-054>055-210900-
EASTERN WEST VIRGINIA PANHANDLE

CITY           SKY/WX    TMP DP  RH WIND       PRES   REMARKS
MARTINSBURG    PTCLDY    75  67  76 CALM      29.94S
PETERSBURG*    PTCLDY    72  69  90 CALM      29.99F

$$

VAZ036>039-050-210900-
CENTRAL FOOTHILLS

CITY           SKY/WX    TMP DP  RH WIND       PRES   REMARKS
CHARLOTTESVILL PTCLDY    77  69  76 S3        29.96S
CULPEPER*      CLOUDY    72  71  99 CALM      29.95S FOG
ORANGE*        PTCLDY    70  68  94 CALM      29.94F
GORDONSVILLE*  CLOUDY    71  70  95 CALM      29.95S
WARRENTON*     FOG       71  68  90 CALM      29.93S VSB 3/4

$$

VAZ055>057-210900-
NORTH AND CENTRAL PIEDMONT

CITY           SKY/WX    TMP DP  RH WIND       PRES   REMARKS
FREDERICKSBRG* PTCLDY    75  75 100 CALM      29.92S
STAFFORD*      CLOUDY    70  70 100 NW3       29.97S FOG

$$

NCZ024-NYZ072-PAZ021-071-VAZ022-071-210900-
OTHER REGIONAL OBSERVATIONS

CITY           SKY/WX    TMP DP  RH WIND       PRES   REMARKS
NEW YORK CITY  CLOUDY    77  67  71 W3        29.91S
PHILADELPHIA   MOCLDY    81  72  74 W5        29.89S
PITTSBURGH     PTCLDY    73  72  96 W3        29.98S
ROANOKE        PTCLDY    73  67  81 NW6       30.04F
RICHMOND       CLOUDY    78  71  79 S5        29.93F
RALEIGH        PTCLDY    76  72  87 SW6       29.98F

$$

ANZ530>537-210900-
MARINE OBSERVATIONS

STATION/POSITION TIME  TEMP    WIND        PRES
                       AIR SEA DIR/SP/G
                 (UTC) (F)     (DEG/KT/KT) (MB)
THOMAS PT LIGHT  0800   82 82  290/  7/  7   N/A
BALT KEY BRIDGE  0742   85     280/  9/ 10 1012.1F
COVE POINT       0742   81     250/  2/  5 1013.3F
LEWISETTA        0742   81 86  250/  9/ 11 1012.9F
SOLOMONS ISLAND  0742   81 84  250/  7/  8   N/A
PINEY POINT      0736          260/  9/ 12   N/A

$$





USA.gov is the U.S. government's official web portal to all federal, state and local government web resources and services.